全部
Cooma Hospital Airport YXCM 天氣
There is no TAF data available at YXCM. Showing TAF data for YCOM (10 mi SW).
OOM終端機場天氣預報(YXCM無資料)
| Here is the undecoded forecast: 2026/05/05 20:21 YCOM 052021Z 0520/0608 05010KT CAVOK FM060100 35010KT CAVOK PROB40 0520/0522 0300 FG NSC RMK T 01 09 15 16 Q 1020 1021 1019 1016 |
There is no METAR data available at YXCM. Showing METAR data for YCOM (10 mi SW).
OOM近期METAR歷史資料(YXCM無資料)
| Date | Time (AEST) | Flight Rules | Wind Dir. | Speed | Type | Height AGL (ft) | Visibility | Temp (°C) | Temp (°F) | Dew Point (°C) | Dew Point (°F) | Rel. Humid. | Pressure | Density Altitude | Remarks |
|---|---|---|---|---|---|---|---|---|---|---|---|---|---|---|---|
| 06-五月 | 09:00 | VFR | 40° | 12 kt | 10000 meters | 6° | 42° | 6° | 42° | 100% | 1021 mb | 2,509 ft | |||
| 06-五月 | 08:00 | VFR | 50° | 10 kt | 10000 meters | 3° | 37° | 3° | 37° | 100% | 1021 mb | 2,149 ft | |||
| 06-五月 | 07:00 | VFR | 50° | 9 kt | 10000 meters | 1° | 33° | 1° | 33° | 100% | 1021 mb | 1,909 ft | |||
| 06-五月 | 06:00 | VFR | 50° | 10 kt | 10000 meters |
1° | 33° | 1° | 33° | 100% | 1020 mb | 1,938 ft | |||
| 06-五月 | 05:00 | BCAT1 | 30° | 6 kt | Broken |
100 |
600 meters |
-2° | 28° | -2° | 28° | 100% | 1021 mb | 1,549 ft | |
| 06-五月 | 04:00 | VFR | 10° | 4 kt | 9000 meters |
-2° | 28° | -2° | 28° | 100% | 1021 mb | 1,549 ft | |||
| 06-五月 | 03:00 | VFR | 10° | 3 kt | 10000 meters | -1° | 30° | -1° | 30° | 100% | 1021 mb | 1,669 ft | |||
| 06-五月 | 02:00 | VFR | 20° | 2 kt | 10000 meters | -1° | 30° | -1° | 30° | 100% | 1021 mb | 1,669 ft | |||
| 06-五月 | 01:00 | VFR | 220° | 5 kt | 10000 meters | 0° | 32° | 0° | 32° | 100% | 1022 mb | 1,759 ft | |||
| 06-五月 | 00:00 | VFR | Calm | 10000 meters | 0° | 32° | 0° | 32° | 100% | 1022 mb | 1,759 ft | ||||
| 05-五月 | 23:00 | VFR | 130° | 1 kt | 10000 meters | 2° | 35° | 2° | 35° | 100% | 1022 mb | 1,999 ft | |||
| 05-五月 | 22:00 | VFR | Calm | 10000 meters | 2° | 35° | 2° | 35° | 100% | 1022 mb | 1,999 ft | ||||
| 05-五月 | 21:00 | VFR | Calm | 10000 meters | 2° | 35° | 1° | 33° | 93% | 1022 mb | 1,999 ft | ||||
| 05-五月 | 20:00 | VFR | Calm | 10000 meters | 3° | 37° | 2° | 35° | 93% | 1022 mb | 2,119 ft | ||||
| 05-五月 | 19:00 | VFR | Calm | 10000 meters | 4° | 39° | 2° | 35° | 87% | 1021 mb | 2,269 ft | ||||
| 05-五月 | 18:00 | VFR | 290° | 1 kt | 10000 meters | 7° | 44° | 4° | 39° | 81% | 1020 mb | 2,658 ft | |||
| 05-五月 | 17:00 | VFR | 200° | 9 kt | 10000 meters | 11° | 51° | 5° | 41° | 66% | 1019 mb | 3,168 ft | |||
| 05-五月 | 16:00 | VFR | 200° | 9 kt | 10000 meters | 14° | 57° | 4° | 39° | 51% | 1019 mb | 3,528 ft | |||
| 05-五月 | 15:00 | VFR | 210° | 9 kt | 10000 meters | 16° | 60° | 3° | 37° | 42% | 1018 mb | 3,797 ft | |||
| 05-五月 | 14:00 | VFR | 200° | 8 kt | 10000 meters | 16° | 60° | 3° | 37° | 42% | 1018 mb | 3,797 ft | |||
| 05-五月 | 13:00 | VFR | 200° | 6 kt | 10000 meters | 15° | 59° | 2° | 35° | 41% | 1018 mb | 3,677 ft | |||
| 05-五月 | 12:00 | VFR | 220° | 3 kt | 10000 meters | 15° | 59° | 2° | 35° | 41% | 1018 mb | 3,677 ft | |||
| 05-五月 | 11:00 | VFR | 240° | 4 kt | 10000 meters | 14° | 57° | 2° | 35° | 44% | 1018 mb | 3,557 ft | |||
| 05-五月 | 10:00 | VFR | 280° | 4 kt | 10000 meters | 12° | 53° | 2° | 35° | 50% | 1018 mb | 3,317 ft |
登入
| 您的瀏覽器不支援. 升級您的瀏覽器 |
